全部
K13-A Airport EHJR 天气
|
(EHJR)
晴天
微风 |
|
11 °C |
There is no TAF data available at EHJR or any nearby airports.
EHJR近期METAR历史数据
| Date | Time (CEST) | Flight Rules | Wind Dir. | Speed | Type | Height AGL (ft) | Visibility | Temp (°C) | Temp (°F) | Dew Point (°C) | Dew Point (°F) | Rel. Humid. | Pressure | Density Altitude | Remarks |
|---|---|---|---|---|---|---|---|---|---|---|---|---|---|---|---|
| 02-五月 | 22:25 | n/a | 110° | 9 kt | Missing | 11° | 51° | 11° | 51° | 100% | 1012 mb | -244 ft | |||
| 02-五月 | 21:55 | n/a | 100° | 7 kt | Missing | 11° | 51° | 11° | 51° | 100% | 1013 mb | -274 ft | |||
| 02-五月 | 21:25 | n/a | 120° | 7 kt | Missing | 11° | 51° | 11° | 51° | 100% | 1013 mb | -274 ft | |||
| 02-五月 | 20:55 | n/a | 110° | 5 kt | Missing | 12° | 53° | 11° | 51° | 94% | 1013 mb | -154 ft | |||
| 02-五月 | 20:25 | n/a | 130° | 5 kt | Missing | 12° | 53° | 11° | 51° | 94% | 1014 mb | -183 ft | |||
| 02-五月 | 19:55 | n/a | 130° | 3 kt | Missing | 12° | 53° | 11° | 51° | 94% | 1014 mb | -183 ft | |||
| 02-五月 | 19:25 | n/a | 160° | 3 kt | Missing | 12° | 53° | 11° | 51° | 94% | 1015 mb | -213 ft | |||
| 02-五月 | 18:55 | n/a | 180° | 5 kt | Missing | 12° | 53° | 11° | 51° | 94% | 1015 mb | -213 ft | |||
| 02-五月 | 18:25 | n/a | 170° | 5 kt | Missing | 12° | 53° | 11° | 51° | 94% | 1015 mb | -213 ft | |||
| 02-五月 | 17:55 | n/a | 180° | 5 kt | Missing | 12° | 53° | 11° | 51° | 94% | 1015 mb | -213 ft | |||
| 02-五月 | 17:25 | n/a | 180° | 3 kt | Missing | 12° | 53° | 11° | 51° | 94% | 1015 mb | -213 ft | |||
| 02-五月 | 16:55 | n/a | 210° | 3 kt | Missing | 12° | 53° | 10° | 50° | 88% | 1015 mb | -213 ft | |||
| 02-五月 | 16:25 | n/a | 250° | 2 kt | Missing | 12° | 53° | 11° | 51° | 94% | 1016 mb | -242 ft | |||
| 02-五月 | 15:55 | n/a | 270° | 4 kt | Missing | 12° | 53° | 11° | 51° | 94% | 1016 mb | -242 ft | |||
| 02-五月 | 15:25 | n/a | 280° | 6 kt | Missing | 12° | 53° | 11° | 51° | 94% | 1015 mb | -213 ft | |||
| 02-五月 | 14:55 | n/a | 290° | 8 kt | Missing | 12° | 53° | 11° | 51° | 94% | 1015 mb | -213 ft | |||
| 02-五月 | 14:25 | n/a | 270° | 10 kt | Missing | 12° | 53° | 11° | 51° | 94% | 1017 mb | -272 ft | |||
| 02-五月 | 13:55 | n/a | 280° | 11 kt | Missing | 12° | 53° | 11° | 51° | 94% | 1016 mb | -242 ft | |||
| 02-五月 | 13:25 | n/a | 280° | 11 kt | Missing | 12° | 53° | 11° | 51° | 94% | 1015 mb | -213 ft | |||
| 02-五月 | 12:55 | n/a | 280° | 13 kt | Missing | 12° | 53° | 11° | 51° | 94% | 1015 mb | -213 ft | |||
| 02-五月 | 12:25 | n/a | 260° | 14 kt | Missing | 12° | 53° | 11° | 51° | 94% | 1016 mb | -242 ft | |||
| 02-五月 | 11:55 | n/a | 260° | 13 kt | Missing | 11° | 51° | 11° | 51° | 100% | 1015 mb | -333 ft | |||
| 02-五月 | 11:25 | n/a | 250° | 13 kt | Missing | 12° | 53° | 11° | 51° | 94% | 1016 mb | -242 ft | |||
| 02-五月 | 10:55 | n/a | 250° | 13 kt | Missing | 12° | 53° | 11° | 51° | 94% | 1015 mb | -213 ft |
登录
| 您的浏览器不支持. 升级您的浏览器 |
